1998-067UT

Last updated on Mon Jan 09 2023 00:02:04 GMT+0000 (Coordinated Universal Time)

1 55126U 98067UT 23008.07922322 .00046009 00000+0 77287-3 0 9991 2 55126 51.6425 41.5470 0003592 288.7439 71.3160 15.51301304 1579
UTC large
Height (km)
Speed (km/s)
/
Latitude / Longitude
Inclination (degrees)
Orbital Period (minutes)
Azimuth
Elevation
Range (km)
Doppler Factor

Next 0 passes for location: London (51.5072 / 0.1276)

Sorry there are no passes over London.
1998-067UT